Location: Newark
(42.7133°N, 87.7910°W)
Time: 01:01:45
(UTC+00:00)

Vanguard 1 - Pass Details

Date: 28 October 2019
Orbit: 652 x 3831 km, 34.2° (Epoch: 21 November)

Event Time Altitude Azimuth Distance (km) Brightness Sun altitude
Rises 23:06:17 0° 240° (WSW) 3,196 14.6 -3.8°
Reaches altitude 10° 23:08:27 10° 231° (SW) 2,438 13.4 -4.2°
Maximum altitude 23:13:41 39° 163° (SSE) 1,588 11.1 -5.1°
Drops below altitude 10° 23:22:12 10° 99° (E) 3,975 12.6 -6.7°
Enters shadow 23:24:05 - 96° (E) 4,619 12.9 -7.0°
